Regional Weather Roundup
Issued by NWS

Home | Current Version | Previous Version | Text Only | Print | Product List | Glossary On
Versions: 1 2 3 4 5 6 7 8 9 10 11 12 13 14 15 16 17 18 19 20 21 22 23 24 25 26 27 28 29 30 31 32 33 34 35 36 37 38 39 40 41
000
ASUS46 KPQR 260610
RWROR

OREGON REGIONAL WEATHER ROUNDUP
NATIONAL WEATHER SERVICE PORTLAND OR
1000 PM PST THU DEC 25 2014

NOTE: "FAIR" INDICATES FEW OR NO CLOUDS BELOW 12,000 FEET WITH
NO SIGNIFICANT WEATHER AND/OR OBSTRUCTIONS TO VISIBILITY.

ORZ001>013-260700-
NORTHWEST OREGON


CITY           SKY/WX    TMP DP  RH WIND       PRES   REMARKS
ASTORIA        CLOUDY    43  41  93 E3        30.28R
6HR MIN TEMP:  43; 6HR MAX TEMP:  47; 6HR PCP: TRACE;

NEWPORT        RAIN      45  45 100 CALM      30.32S
PORTLAND       CLOUDY    44  43  96 S5        30.29S
6HR MIN TEMP:  44; 6HR MAX TEMP:  47; 6HR PCP:  0.04;

VANCOUVER WA   CLOUDY    44  42  93 CALM      30.29R
6HR MIN TEMP:  43; 6HR MAX TEMP:  47; 6HR PCP:  0.02;

SCAPPOOSE      CLOUDY    43  41  93 CALM      30.28R
6HR MIN TEMP:  42; 6HR MAX TEMP:  47; 6HR PCP: TRACE;

HILLSBORO      CLOUDY    42  42 100 W3        30.29R
6HR MIN TEMP:  41; 6HR MAX TEMP:  47; 6HR PCP: TRACE;

AURORA         CLOUDY    40  38  93 CALM      30.30S
6HR MIN TEMP:  39; 6HR MAX TEMP:  47; 6HR PCP: TRACE;

MCMINNVILLE    MOCLDY    41  38  89 W3        30.30R
6HR MIN TEMP:  39; 6HR MAX TEMP:  48;

SALEM          MOCLDY    40  38  93 S3        30.29R
6HR MIN TEMP:  40; 6HR MAX TEMP:  48;

CORVALLIS      CLOUDY    43  39  87 CALM      30.31R
EUGENE         MOCLDY    42  40  92 SE6       30.31R
6HR MIN TEMP:  42; 6HR MAX TEMP:  48;

$$

ORZ021-028-260700-
SOUTHWEST OREGON


CITY           SKY/WX    TMP DP  RH WIND       PRES   REMARKS
NORTH BEND     MOCLDY    45  45 100 SE7       30.33S
6HR MIN TEMP:  45; 6HR MAX TEMP:  48; 6HR PCP:  0.01;

BROOKINGS      CLEAR     45  40  82 N3        30.30F
ROSEBURG         N/A     42  40  92 MISG      30.32S
6HR MIN TEMP:  42; 6HR MAX TEMP:  49;

SEXTON SUMMIT  FOG       31  31 100 CALM      30.22S VSB 1/2
6HR MIN TEMP:  30; 6HR MAX TEMP:  31; 6HR PCP: TRACE;

MEDFORD        CLOUDY    40  34  79 CALM      30.30S
6HR MIN TEMP:  37; 6HR MAX TEMP:  45;

$$

ORZ014>016-041-260700-
COLUMBIA GORGE


CITY           SKY/WX    TMP DP  RH WIND       PRES   REMARKS
TROUTDALE      MOCLDY    41  39  93 CALM      30.28R
6HR MIN TEMP:  41; 6HR MAX TEMP:  47; 6HR PCP:  0.01;

THE DALLES     CLEAR     39  33  79 CALM      30.23S
6HR MIN TEMP:  38; 6HR MAX TEMP:  48;

$$

ORZ029>031-041-044-049-050-061>064-502-503-505>511-260700-
EASTERN OREGON


CITY           SKY/WX    TMP DP  RH WIND       PRES   REMARKS
REDMOND        CLOUDY    33  27  78 N3        30.18R
6HR MIN TEMP:  33; 6HR MAX TEMP:  38;

BEND           CLOUDY    32  25  74 W7        30.18R WCI  26
PRINEVILLE     CLOUDY    34  28  80 CALM      30.18R
KLAMATH FALLS  CLOUDY    37  23  56 W6        30.18R WCI  32
6HR MIN TEMP:  37; 6HR MAX TEMP:  45;

LAKEVIEW       MOCLDY    21  18  86 NW5       30.13S WCI  15
HERMISTON      PTCLDY    38  32  79 SW8       30.19R WCI  32
6HR MIN TEMP:  37; 6HR MAX TEMP:  44;

PENDLETON      CLOUDY    38  30  73 W12       30.16R WCI  30
6HR MIN TEMP:  36; 6HR MAX TEMP:  39;

JOHN DAY       MOCLDY    31  26  81 W5        30.14R WCI  26
MEACHAM        FLURRIES  30  27  88 CALM      30.09S
6HR MIN TEMP:  30; 6HR MAX TEMP:  31; 6HR PCP:  0.03;

LA GRANDE      CLOUDY    34  25  69 W6        30.12R WCI  29
6HR MIN TEMP:  32; 6HR MAX TEMP:  36;

BAKER CITY     CLOUDY    26  22  84 SW7       30.11R WCI  18
6HR MIN TEMP:  25; 6HR MAX TEMP:  30;

BURNS          CLEAR     22  18  85 CALM      30.12R
6HR MIN TEMP:  22; 6HR MAX TEMP:  32;

ROME             N/A     32  18  56 NW10      30.07S WCI  24
6HR MIN TEMP:  31; 6HR MAX TEMP:  34;

ONTARIO        MOCLDY    34  25  69 N3        30.14R
6HR MIN TEMP:  34; 6HR MAX TEMP:  36;

$$



USA.gov is the U.S. government's official web portal to all federal, state and local government web resources and services.